Weather in NPS Druzhba

Russia / Samara Oblast     53°04′35″N   50°13′58″E
temp.,
°C
wind,
m/s
gust,
m/s
humid.,
%
clouds,
%
prec.,
mm/h
press.,
hPa
HPBL,
m
25 february, thu
thu2501:00−27nnw23930 0.0 103621
04:00−28w229339 0.0 103619
07:00−28wsw229359 0.0 103619
10:00−24sw239172 0.0 1035110
13:00−20s4788100 0.0 1033282
16:00−18s61088100 0.0 1030364
19:00−17s71296100 0.7 1027482
22:00−16s71395100 1.8 1024563
26 february, fri
fri2601:00−14s71294100 1.1 1021593
04:00−13s71394100 2.1 1019562
07:00−12s61194100 0.5 1017433
10:00−11s6993100 0.8 1017428
13:00−9s6993100 0.2 1015441
16:00−7s6993100 0.5 1014406
19:00−7s61195100 0.4 1011353
22:00−5s81495100 2.0 1007324
27 february, sat
sat2701:000ssw91598100 3.1 1001466
04:00+2wsw71599100 7.3 999437
07:00+1wsw6129095 0.1 999449
10:00+1wsw7139697 0.1 1000643
13:00+1wsw71210093 0.1 1000612
16:00+1wsw6119893 0.1 1000594
19:000wsw5119495 0.1 999423
22:00−1sw5119797 0.3 999403
28 february, sun
sun2801:00−1wsw61197100 0.7 998490
04:00−2wnw4797100 1.7 1000319
07:00−9nw4895100 0.5 1002373
10:00−11nw4792100 0.8 1004440
13:00−11nw4691100 0.1 1006541
16:00−12nw5791100 0.1 1008528
19:00−16nw3794100 0.1 1011159
22:00−17nw369592 0.1 1014105
1 march, mon
mon101:00−18nw359672 0.0 1015111
04:00−19nw359673 0.0 101684
07:00−18nw369778 0.1 1018205
10:00−16nnw469481 0.1 1020326
13:00−13nnw3590100 0.0 1021468
16:00−12nnw3591100 0.1 1022505
19:00−17nnw349597 0.0 102351
22:00−19wnw239667 0.0 102420